330  
ASUS41 KBGM 210410  
RWRBGM  
 
REGIONAL WEATHER ROUNDUP  
NATIONAL WEATHER SERVICE BINGHAMTON NY  
1100 PM EST THU FEB 20 2020  
 
NOTE: "FAIR" INDICATES FEW OR NO CLOUDS BELOW 12,000 FEET WITH NO  
SIGNIFICANT WEATHER AND/OR S TO VISIBILITY
.  
 
* = STATION(S) THAT DOES NOT REPORT PRECIPITATION, SUCH AS RAIN,  
SNOW, ETC, ALSO NO THUNDER OR FOG.
 
 
NYZ009-015>018-022>025-036-037-044>046-055>057-062-210500   
..CENTRAL NEW YORK
 
 
 
CITY SKY/WX TMP DP RH WIND PRES REMARKS
 
BINGHAMTON FAIR 10 5 80 W5 30.38F WCI 2  
CORTLAND CLOUDY 9 5 85 CALM 30.43S  
DANSVILLE CLOUDY 19 12 74 CALM 30.50S  
ELMIRA FAIR 14 9 80 CALM 30.47S  
ENDICOTT MOCLDY 14 12 92 CALM 30.47S  
ITHACA FAIR 15 10 80 W7 30.45S WCI 5  
HAMILTON CLOUDY 9 7 92 S3 30.43S  
MONTICELLO FAIR 14 6 70 NW6 30.40F WCI 5  
NORWICH FLURRIES 9 3 78 CALM 30.45S  
ONEONTA FLURRIES 10 7 85 CALM 30.37S  
PENN YAN CLOUDY 18 10 71 SW5 30.47S WCI 11  
ROME CLOUDY 15 5 64 W3 30.49S  
SENECA FALLS CLOUDY 18 10 73 W7 30.51R WCI 8  
SIDNEY CLEAR 10 9 92 CALM 30.45S  
SKANEATELES FLURRIES 18 12 79 VRB7 30.45S WCI 8  
SYRACUSE LGT SNOW 19 13 77 W7 30.49S WCI 10  

 
 
PAZ038>040-043-044-047-048-072-210500   
..NORTHEAST PENNSYLVANIA
 
 
 
CITY SKY/WX TMP DP RH WIND PRES REMARKS
 
HAZLETON FAIR 19 9 63 NW5 30.42S WCI 13  
SCRANTON FAIR 20 7 57 N9 30.45R WCI 9  
TOWANDA CLEAR 18 12 79 SW3 30.50S  

 

 
KEY  
WCI = WIND CHILL INDEX  
VSB = VISIBILITY  
HX = HEAT INDEX  

 
 
 
CLICK HERE TO GO TO PREVIOUS BULLETINS.

The Nexlab NY Page
The Nexlab PA Page Main Text Page